Terminal Aerodrome Forecast
Issued by NWS

Home | Current Version | Previous Version | Text Only | Print | Product List | Glossary On
Versions: 1 2 3 4 5 6 7 8 9 10 11 12 13
000
FTAK31 PAJN 210531
TAFAGY
TAF
PAGY 210531Z 2106/2206 21010KT P6SM -SHRA BKN060
     FM211500 04005KT P6SM VCSH SCT025 OVC060
     FM212100 03012KT P6SM BKN060
     FM220300 04005KT P6SM OVC050
      AMD LTD TO CLD VIS AND WIND=

USA.gov is the U.S. government's official web portal to all federal, state and local government web resources and services.